DW7955 Weather Reports


time (UTC)temp
F
wind
direction
speed
knots
gust
knots
rain 1hr
in
rain 24hr
in
rain mn
in
humidity
%
barometer
mb
20260902024541 77 70 3.5 9.6 0.00 0.00 0.00 46 1005.8
20260902023044 77 80 5.2 11.3 0.00 0.00 0.00 46 1005.5
20260902021538 77 59 6.1 10.4 0.00 0.00 0.00 48 1005.1
20260902020039 77 117 4.3 12.2 0.00 0.00 0.00 48 1004.8
20260902014538 78 133 5.2 15.6 0.00 0.00 0.00 46 1004.8
20260902013043 79 97 7.0 15.6 0.00 0.00 0.00 42 1004.8
20260902011537 80 84 3.5 9.6 0.00 0.00 0.00 38 1004.8
20260902010036 80 83 4.3 9.6 0.00 0.00 0.00 37 1004.6
20260902004536 81 128 5.2 8.7 0.00 0.00 0.00 38 1004.6
20260902003039 81 114 4.3 10.4 0.00 0.00 0.00 38 1004.7
20260902001552 81 142 7.0 13.9 0.00 0.00 0.00 38 1004.7
20260902000038 82 122 9.6 14.8 0.00 0.00 0.00 37 1004.6
20260901234534 84 111 7.8 16.5 0.00 0.00 0.00 36 1004.6
20260901233035 86 106 8.7 15.6 0.00 0.00 0.00 29 1004.5
20260901231531 86 107 8.7 20.9 0.00 0.00 0.00 30 1004.4
20260901230031 87 82 12.2 15.6 0.00 0.00 0.00 31 1004.7
20260901224529 87 129 3.5 9.6 0.00 0.00 0.00 30 1004.9
20260901223027 86 107 5.2 10.4 0.00 0.00 0.00 30 1005.0
20260901221525 87 102 5.2 12.2 0.00 0.00 0.00 29 1005.2
20260901220023 86 126 7.8 12.2 0.00 0.00 0.00 30 1005.6
20260901214523 86 151 3.5 10.4 0.00 0.00 0.00 29 1005.5
20260901213020 85 198 5.2 13.9 0.00 0.00 0.00 29 1005.7
20260901211519 86 145 4.3 9.6 0.00 0.00 0.00 29 1005.8
20260901210017 85 141 6.1 10.4 0.00 0.00 0.00 29 1005.9
20260901204516 85 132 5.2 9.6 0.00 0.00 0.00 30 1006.0
20260901203015 84 178 4.3 13.0 0.00 0.00 0.00 31 1006.4
20260901201510 84 131 7.0 13.0 0.00 0.00 0.00 32 1006.5
20260901200008 83 131 3.5 12.2 0.00 0.00 0.00 36 1006.8
20260901194506 83 116 6.1 11.3 0.00 0.00 0.00 37 1007.0
20260901193005 82 112 9.6 13.9 0.00 0.00 0.00 41 1007.2
20260901191503 82 155 6.1 13.0 0.00 0.00 0.00 42 1007.4
20260901190003 82 123 5.2 10.4 0.00 0.00 0.00 42 1007.4
20260901184502 84 175 2.6 7.8 0.00 0.00 0.00 30 1007.5
20260901183102 83 286 3.5 10.4 0.00 0.00 0.00 31 1007.5
20260901181604 82 292 7.8 10.4 0.00 0.00 0.00 32 1007.4
20260901180054 80 320 4.3 12.2 0.00 0.00 0.00 38 1007.5
20260901174550 78 308 3.5 7.8 0.00 0.00 0.00 46 1007.9
20260901173057 76 41 6.1 8.7 0.00 0.00 0.00 53 1008.7
20260901171551 74 24 4.3 7.0 0.00 0.00 0.00 55 1008.9
20260901170044 73 42 2.6 5.2 0.00 0.00 0.00 56 1009.1
20260901164542 71 356 1.7 4.3 0.00 0.00 0.00 61 1009.1
20260901163032 69 290 1.7 7.8 0.00 0.00 0.00 66 1009.1
20260901161548 67 248 0.9 4.3 0.00 0.00 0.00 71 1009.0
20260901160032 66 328 1.7 3.5 0.00 0.00 0.00 73 1008.9
20260901154532 65 279 2.6 5.2 0.00 0.00 0.00 74 1008.6
20260901153029 64 293 1.7 3.5 0.00 0.00 0.00 79 1008.8
20260901151531 64 212 0.0 0.0 0.00 0.00 0.00 82 1008.8
20260901150037 63 212 0.0 0.0 0.00 0.00 0.00 83 1008.9
20260901144537 63 212 0.9 3.5 0.00 0.00 0.00 83 1009.2
20260901143026 63 227 0.0 2.6 0.00 0.00 0.00 81 1008.9
20260901141525 63 227 1.7 3.5 0.00 0.00 0.00 81 1009.1
20260901140024 63 166 1.7 5.2 0.00 0.00 0.00 80 1009.2
20260901134525 63 79 0.0 0.9 0.00 0.00 0.00 78 1009.0
20260901133022 63 55 0.0 0.9 0.00 0.00 0.00 79 1008.7
20260901131525 63 133 0.0 0.0 0.00 0.00 0.00 80 1008.6
20260901130025 62 133 0.0 0.0 0.00 0.00 0.00 81 1008.5
20260901124520 62 133 0.0 6.1 0.00 0.00 0.00 81 1008.5
20260901123019 62 89 0.0 0.0 0.00 0.00 0.00 82 1008.3
20260901121518 62 89 0.0 4.3 0.00 0.00 0.00 82 1008.4
20260901120017 62 254 0.0 0.0 0.00 0.00 0.00 82 1008.3
20260901114515 62 254 0.0 3.5 0.00 0.00 0.00 81 1008.1
20260901113014 62 254 0.0 1.7 0.00 0.00 0.00 81 1008.3
20260901111512 63 286 0.0 2.6 0.00 0.00 0.00 80 1007.9
20260901110011 63 326 0.0 3.5 0.00 0.00 0.00 79 1007.8
20260901104512 63 288 0.9 5.2 0.00 0.00 0.00 79 1008.0
20260901103008 63 346 3.5 6.1 0.00 0.00 0.00 79 1008.1
20260901101508 63 24 4.3 7.8 0.00 0.00 0.00 79 1008.2
20260901100005 64 16 5.2 8.7 0.00 0.00 0.00 78 1008.4
20260901094503 64 316 1.7 3.5 0.00 0.00 0.00 75 1009.4
20260901093103 64 41 0.0 3.5 0.00 0.00 0.00 74 1009.2
20260901091604 64 49 2.6 4.3 0.00 0.00 0.00 73 1008.9
20260901090058 64 34 2.6 5.2 0.00 0.00 0.00 72 1008.9
20260901084558 65 28 0.0 6.1 0.00 0.00 0.00 70 1008.8
20260901083057 65 80 0.0 7.0 0.00 0.00 0.00 70 1008.8
20260901081554 65 77 0.0 0.0 0.00 0.00 0.00 68 1008.8
20260901080053 65 77 0.0 0.0 0.00 0.00 0.00 66 1008.8
20260901074551 66 77 0.0 3.5 0.00 0.00 0.00 65 1009.1
20260901073057 66 77 0.0 0.0 0.00 0.00 0.00 64 1009.2
20260901071548 67 77 0.0 0.9 0.00 0.00 0.00 63 1009.1
20260901070054 67 88 0.0 1.7 0.00 0.00 0.00 62 1009.2
20260901064544 67 88 0.0 2.6 0.00 0.00 0.00 62 1009.1
20260901063042 68 88 0.0 4.3 0.00 0.00 0.00 62 1009.1
20260901061539 68 298 0.9 2.6 0.00 0.00 0.00 61 1008.7
20260901060036 69 61 0.0 1.7 0.00 0.00 0.00 60 1008.7
20260901054536 69 55 2.6 3.5 0.00 0.00 0.00 59 1008.6
20260901053036 70 68 2.6 6.1 0.00 0.00 0.00 59 1008.8
20260901051542 70 72 0.0 2.6 0.00 0.00 0.00 58 1008.7
20260901050035 70 64 2.6 4.3 0.00 0.00 0.00 59 1008.7
20260901044551 70 172 0.0 3.5 0.00 0.00 0.00 58 1009.0
20260901043034 70 172 0.0 1.7 0.00 0.00 0.00 58 1009.0
20260901041533 71 115 2.6 4.3 0.00 0.00 0.00 55 1009.0
20260901040033 72 138 0.0 1.7 0.00 0.00 0.00 53 1009.0
20260901034535 73 132 2.6 7.0 0.00 0.00 0.00 52 1009.2
20260901033049 73 188 0.9 8.7 0.00 0.00 0.00 50 1009.4
20260901031533 73 179 3.5 7.8 0.00 0.00 0.00 49 1009.6
20260901030035 73 216 5.2 11.3 0.00 0.00 0.00 51 1009.3